TimeCDT,TemperatureF,Dew PointF,Humidity,Sea Level PressureIn,VisibilityMPH,Wind Direction,Wind SpeedMPH,Gust SpeedMPH,PrecipitationIn,Events,Conditions,WindDirDegrees,DateUTC
12:56 AM,64.0,39.0,40,29.56,-9999.0,West,9.2,-,N/A,,Unknown,270,2012-10-16 05:56:00
1:56 AM,64.9,39.9,40,29.55,-9999.0,WNW,9.2,-,N/A,,Unknown,300,2012-10-16 06:56:00
2:56 AM,60.1,41.0,49,29.55,-9999.0,NW,6.9,-,N/A,,Unknown,310,2012-10-16 07:56:00
3:56 AM,60.1,42.1,51,29.54,-9999.0,West,4.6,-,N/A,,Unknown,280,2012-10-16 08:56:00
4:56 AM,57.9,44.1,60,29.52,-9999.0,NW,5.8,-,N/A,,Unknown,320,2012-10-16 09:56:00
5:56 AM,55.0,43.0,64,29.52,-9999.0,NNW,5.8,-,N/A,,Unknown,330,2012-10-16 10:56:00
6:56 AM,55.0,45.0,69,29.52,-9999.0,NW,5.8,-,N/A,,Unknown,320,2012-10-16 11:56:00
7:56 AM,55.0,45.0,69,29.52,-9999.0,NW,4.6,-,N/A,,Unknown,310,2012-10-16 12:56:00
8:56 AM,55.0,46.0,72,29.52,-9999.0,West,4.6,-,N/A,,Unknown,260,2012-10-16 13:56:00
9:56 AM,64.0,46.9,54,29.50,-9999.0,NW,4.6,-,N/A,,Unknown,310,2012-10-16 14:56:00
10:56 AM,66.0,48.0,52,29.48,-9999.0,NNW,3.5,-,N/A,,Unknown,330,2012-10-16 15:56:00
11:56 AM,69.1,46.0,44,29.46,-9999.0,Variable,3.5,-,N/A,,Unknown,0,2012-10-16 16:56:00
12:56 PM,71.1,45.0,39,29.42,-9999.0,West,6.9,-,N/A,,Unknown,280,2012-10-16 17:56:00
1:56 PM,72.0,45.0,38,29.38,-9999.0,Calm,Calm,-,N/A,,Unknown,0,2012-10-16 18:56:00
2:56 PM,72.0,45.0,38,29.38,-9999.0,West,5.8,-,N/A,,Unknown,260,2012-10-16 19:56:00
3:56 PM,73.0,44.1,35,29.34,-9999.0,Calm,Calm,-,N/A,,Unknown,0,2012-10-16 20:56:00
4:56 PM,73.0,43.0,34,29.34,-9999.0,NW,3.5,-,N/A,,Unknown,320,2012-10-16 21:56:00
5:56 PM,69.1,44.1,40,29.33,-9999.0,West,3.5,-,N/A,,Unknown,270,2012-10-16 22:56:00
6:56 PM,64.0,44.1,48,29.33,-9999.0,WSW,5.8,-,N/A,,Unknown,250,2012-10-16 23:56:00
7:56 PM,59.0,43.0,55,29.31,-9999.0,South,4.6,-,N/A,,Unknown,180,2012-10-17 00:56:00
8:56 PM,55.0,42.1,62,29.31,-9999.0,WSW,6.9,-,N/A,,Unknown,240,2012-10-17 01:56:00
9:56 PM,54.0,42.1,64,29.30,-9999.0,SW,4.6,-,N/A,,Unknown,220,2012-10-17 02:56:00
10:56 PM,53.1,42.1,66,29.26,-9999.0,South,3.5,-,N/A,,Unknown,170,2012-10-17 03:56:00
11:56 PM,55.0,44.1,67,29.24,-9999.0,SSW,5.8,-,N/A,,Unknown,210,2012-10-17 04:56:00